Weather History for Middlesboro, KY

Change the Weather History Date:

Friday, November 8, 2013

  Actual Average (KLOZ) Record (KLOZ)
Temperature  
Mean Temperature 40 °F 50 °F  
Max Temperature 52 °F 62 °F 77 °F (1975)
Min Temperature 27 °F 39 °F 19 °F (1967)
Degree Days  
Heating Degree Days 26 15  
Month to date heating degree days 111  
Since 1 July heating degree days 417  
Cooling Degree Days 0 0  
Month to date cooling degree days 0  
Moisture  
Dew Point 27 °F    
Average Humidity 71    
Maximum Humidity 99    
Minimum Humidity 31    
Precipitation  
Precipitation 0.00 in 0.11 in 2.66 in (1986)
Month to date precipitation 0.91  
Sea Level Pressure  
Sea Level Pressure 30.33 in    
Wind  
Wind Speed 1 mph (North)    
Max Wind Speed 9 mph    
Max Gust Speed -    
Visibility 10 miles    
Events      
T = Trace of Precipitation, MM = Missing Value Source: NWS Daily Summary

Daily Weather History Graph

Daily Weather History Graph

Search for Another Location

Airport:

Trip Planner

Search our weather history database for the weather conditions in past years. The results will help you decide how hot, cold, wet, or windy it might be!

Date:

Astronomy

Nov. 08, 2013 Rise Set
Actual Time 6:05 AM CST 4:31 PM CST
Civil Twilight 5:38 AM CST 4:58 PM CST
Nautical Twilight 5:07 AM CST 5:29 PM CST
Astronomical Twilight 4:37 AM CST 5:59 PM CST
Moon 11:00 AM CST (11/8) 9:50 PM CST (11/8)
Length of Visible Light 11h 19m
Length of Day
10h 25m
Waxing Crescent, 33% of the Moon is Illuminated
Nov 8
Waxing Crescent
Nov 9
First Quarter
Nov 17
Full
Nov 25
Last Quarter
Dec 2
New

Hourly Weather History & Observations

Time (CST) Temp. Windchill Dew Point Humidity Pressure Visibility Wind Dir Wind Speed Gust Speed Precip Events Conditions
12:15 AM 31.1 °F - 30.4 °F 97% 30.31 in 10.0 mi Calm Calm - N/A   Clear
12:35 AM 30.6 °F - 29.7 °F 96% 30.31 in 10.0 mi Calm Calm - N/A   Clear
12:55 AM 30.6 °F - 29.7 °F 96% 30.31 in 10.0 mi Calm Calm - N/A   Clear
1:15 AM 30.4 °F - 29.7 °F 97% 30.31 in 10.0 mi Calm Calm - N/A   Clear
1:35 AM 30.2 °F - 29.3 °F 96% 30.31 in 10.0 mi Calm Calm - N/A   Scattered Clouds
1:55 AM 30.0 °F - 29.7 °F 99% 30.31 in 10.0 mi Calm Calm - N/A   Scattered Clouds
2:15 AM 30.2 °F - 29.3 °F 96% 30.31 in 10.0 mi Calm Calm - N/A   Mostly Cloudy
2:35 AM 30.7 °F - 30.0 °F 97% 30.30 in 10.0 mi Calm Calm - N/A   Overcast
2:55 AM 30.7 °F - 29.8 °F 96% 30.31 in 10.0 mi Calm Calm - N/A   Mostly Cloudy
3:15 AM 30.2 °F - 29.3 °F 96% 30.31 in 10.0 mi Calm Calm - N/A   Clear
3:35 AM 29.8 °F - 28.9 °F 96% 30.31 in 10.0 mi Calm Calm - N/A   Clear
3:55 AM 28.9 °F - 27.9 °F 96% 30.32 in 10.0 mi Calm Calm - N/A   Clear
4:15 AM 29.3 °F - 28.4 °F 96% 30.32 in 10.0 mi Calm Calm - N/A   Clear
4:35 AM 28.8 °F - 27.7 °F 96% 30.33 in 10.0 mi Calm Calm - N/A   Clear
4:55 AM 28.6 °F - 28.0 °F 98% 30.34 in 10.0 mi Calm Calm - N/A   Clear
5:15 AM 28.0 °F - 27.1 °F 96% 30.34 in 10.0 mi Calm Calm - N/A   Clear
5:35 AM 28.4 °F - 27.1 °F 95% 30.35 in 10.0 mi Calm Calm - N/A   Clear
5:55 AM 28.0 °F - 27.0 °F 96% 30.35 in 10.0 mi Calm Calm - N/A   Clear
6:15 AM 27.5 °F - 26.6 °F 96% 30.36 in 10.0 mi Calm Calm - N/A   Clear
6:35 AM 27.5 °F - 26.4 °F 96% 30.37 in 5.0 mi Calm Calm - N/A   Clear
6:55 AM 28.4 °F - 27.3 °F 96% 30.38 in 10.0 mi Calm Calm - N/A   Clear
7:15 AM 29.7 °F - 28.4 °F 95% 30.39 in 10.0 mi Calm Calm - N/A   Clear
7:35 AM 31.6 °F - 29.8 °F 93% 30.39 in 10.0 mi Calm Calm - N/A   Clear
7:55 AM 34.2 °F - 31.5 °F 90% 30.40 in 10.0 mi Calm Calm - N/A   Clear
8:15 AM 38.8 °F - 29.1 °F 68% 30.40 in 10.0 mi Calm Calm - N/A   Clear
8:35 AM 40.5 °F 37.3 °F 27.0 °F 59% 30.40 in 10.0 mi NE 4.6 mph - N/A   Clear
8:55 AM 41.7 °F - 26.6 °F 55% 30.40 in 10.0 mi Calm Calm - N/A   Clear
9:15 AM 43.7 °F 39.7 °F 26.1 °F 50% 30.41 in 10.0 mi NNE 6.9 mph - N/A   Clear
9:35 AM 43.9 °F 39.3 °F 23.5 °F 45% 30.40 in 10.0 mi NNE 8.1 mph - N/A   Clear
9:55 AM 45.5 °F 41.8 °F 24.4 °F 44% 30.40 in 10.0 mi North 6.9 mph - N/A   Clear
10:15 AM 46.2 °F 43.3 °F 23.2 °F 40% 30.40 in 10.0 mi NNE 5.8 mph - N/A   Clear
10:35 AM 46.9 °F - 23.4 °F 40% 30.39 in 10.0 mi NE 3.5 mph - N/A   Clear
10:55 AM 48.0 °F - 24.1 °F 39% 30.38 in 10.0 mi WNW 5.8 mph - N/A   Clear
11:15 AM 49.1 °F - 24.6 °F 38% 30.37 in 10.0 mi North 6.9 mph - N/A   Clear
11:35 AM 49.5 °F - 24.8 °F 38% 30.36 in 10.0 mi North 6.9 mph - N/A   Clear
11:55 AM 49.6 °F - 24.1 °F 37% 30.35 in 10.0 mi North 4.6 mph - N/A   Clear
12:15 PM 50.7 °F - 24.3 °F 36% 30.34 in 10.0 mi North 5.8 mph - N/A   Clear
12:35 PM 50.5 °F - 23.2 °F 34% 30.34 in 10.0 mi Calm Calm - N/A   Clear
12:55 PM 51.3 °F - 23.4 °F 34% 30.33 in 10.0 mi NW 9.2 mph - N/A   Clear
1:15 PM 51.4 °F - 21.7 °F 31% 30.32 in 10.0 mi NNW 5.8 mph - N/A   Clear
1:35 PM 51.8 °F - 21.6 °F 31% 30.32 in 10.0 mi North 8.1 mph - N/A   Clear
1:55 PM 51.8 °F - 21.6 °F 31% 30.32 in 10.0 mi NNE 9.2 mph - N/A   Clear
2:15 PM 52.3 °F - 23.4 °F 32% 30.31 in 10.0 mi NE 8.1 mph - N/A   Clear
2:35 PM 51.6 °F - 22.8 °F 32% 30.31 in 10.0 mi North 6.9 mph - N/A   Clear
2:55 PM 51.1 °F - 22.5 °F 33% 30.31 in 10.0 mi East 3.5 mph - N/A   Clear
3:15 PM 51.3 °F - 23.2 °F 33% 30.30 in 10.0 mi North 3.5 mph - N/A   Clear
3:35 PM 50.4 °F - 22.6 °F 34% 30.30 in 10.0 mi Calm Calm - N/A   Clear
3:55 PM 49.6 °F - 23.5 °F 36% 30.30 in 10.0 mi Calm Calm - N/A   Clear
4:15 PM 46.9 °F - 27.0 °F 46% 30.29 in 10.0 mi Calm Calm - N/A   Clear
4:35 PM 45.1 °F - 27.1 °F 49% 30.29 in 10.0 mi Calm Calm - N/A   Clear
4:55 PM 43.2 °F 41.5 °F 27.9 °F 55% 30.30 in 10.0 mi WNW 3.5 mph - N/A   Clear
5:15 PM 41.5 °F 39.6 °F 28.2 °F 59% 30.30 in 10.0 mi WNW 3.5 mph - N/A   Clear
5:35 PM 41.7 °F - 27.7 °F 58% 30.30 in 10.0 mi Calm Calm - N/A   Clear
5:55 PM 40.6 °F - 28.4 °F 62% 30.30 in 10.0 mi Calm Calm - N/A   Clear
6:15 PM 38.8 °F 36.5 °F 29.1 °F 68% 30.31 in 10.0 mi West 3.5 mph - N/A   Clear
6:35 PM 38.5 °F - 28.6 °F 68% 30.31 in 10.0 mi Calm Calm - N/A   Clear
6:55 PM 36.9 °F - 30.2 °F 77% 30.31 in 10.0 mi Calm Calm - N/A   Clear
7:15 PM 36.0 °F - 29.8 °F 78% 30.31 in 10.0 mi Calm Calm - N/A   Clear
7:35 PM 35.1 °F - 29.8 °F 81% 30.31 in 10.0 mi Calm Calm - N/A   Clear
7:55 PM 33.8 °F - 30.2 °F 87% 30.31 in 10.0 mi Calm Calm - N/A   Clear
8:15 PM 33.6 °F - 29.5 °F 85% 30.31 in 10.0 mi Calm Calm - N/A   Clear
8:35 PM 33.4 °F - 29.8 °F 87% 30.31 in 10.0 mi Calm Calm - N/A   Clear
8:55 PM 32.4 °F - 29.8 °F 90% 30.32 in 10.0 mi Calm Calm - N/A   Clear
9:15 PM 32.5 °F - 29.5 °F 88% 30.31 in 10.0 mi Calm Calm - N/A   Clear
9:35 PM 32.0 °F - 29.3 °F 90% 30.31 in 10.0 mi Calm Calm - N/A   Clear
9:55 PM 31.6 °F - 29.3 °F 91% 30.31 in 10.0 mi Calm Calm - N/A   Clear
10:15 PM 31.8 °F - 29.1 °F 90% 30.31 in 10.0 mi Calm Calm - N/A   Clear
10:35 PM 31.5 °F - 29.1 °F 91% 30.30 in 10.0 mi Calm Calm - N/A   Clear
10:55 PM 30.9 °F - 29.1 °F 93% 30.30 in 10.0 mi Calm Calm - N/A   Clear
11:15 PM 31.1 °F - 29.1 °F 92% 30.30 in 10.0 mi Calm Calm - N/A   Clear
11:35 PM 31.1 °F - 29.1 °F 92% 30.30 in 10.0 mi Calm Calm - N/A   Clear
11:55 PM 30.4 °F - 28.6 °F 93% 30.29 in 10.0 mi Calm Calm - N/A   Clear